Regional Weather Roundup
Issued by NWS

Home | Current Version | Previous Version | Text Only | Print | Product List | Glossary On
Versions: 1 2 3 4 5 6 7 8 9 10 11 12 13 14 15 16 17 18 19 20 21 22 23 24 25 26 27 28 29 30 31 32 33 34 35 36 37 38 39 40 41 42 43 44 45 46 47 48 49 50
000
ASUS43 KDTX 220301
RWRMI
MICHIGAN HOURLY REGIONAL WEATHER ROUNDUP
NATIONAL WEATHER SERVICE DETROIT/PONTIAC MI
1000 PM EST FRI NOV 21 2014

NOTE: "FAIR" INDICATES FEW OR NO CLOUDS BELOW 12,000 FEET WITH NO
SIGNIFICANT WEATHER AND/OR OBSTRUCTION TO VISIBILITY.

MIZ047>049-052>055-059>063-066>070-074>076-081>083-220400-
SOUTHEAST LOWER MICHIGAN

CITY           SKY/WX    TMP DP  RH WIND       PRES   REMARKS
ADRIAN         PTCLDY    19  10  68 S8        30.37F WCI   9
ALMA           MOCLDY    22  14  71 S9        30.30F WCI  12
ANN ARBOR      PTCLDY    17  10  74 S6        30.36F WCI   9
BAD AXE        MOCLDY    23  15  69 SW13      30.30F WCI  12
DETROIT CITY   CLEAR     25  14  63 SW12      30.38F WCI  14
DETROIT        PTCLDY    19  12  74 S6        30.39F WCI  11
FLINT          PTCLDY    22  12  65 S9        30.32F WCI  12
GROSSE ILE     PTCLDY    27  16  63 SW10G20   30.38S WCI  17
HILLSDALE      PTCLDY    20  11  68 S6        30.31F WCI  12
HOWELL         PTCLDY    20  12  71 S9        30.32F WCI   9

CITY           SKY/WX    TMP DP  RH WIND       PRES   REMARKS
JACKSON        PTCLDY    21  11  65 S8        30.32F WCI  11
LAMBERTVILLE   PTCLDY    23  12  63 S6        30.39F WCI  16
LANSING        PTCLDY    21  11  65 S12       30.31F WCI   9
LAPEER         FAIR      21  13  70 SW12      30.32F WCI  10
MASON          CLEAR     19  12  73 S6        30.31F WCI  11
MT. CLEMENS    PTCLDY    19  14  80 SW5       30.35F WCI  12
PONTIAC        PTCLDY    20  11  68 S8        30.33F WCI  10
PORT HOPE        N/A     24  11  57 SW8       30.27F WCI  15
PORT HURON     MOCLDY    23  16  74 SW6       30.35F WCI  16
TRI CITIES     MOCLDY    25  13  60 S15G23    30.30F WCI  13
SAGINAW HB     MOCLDY    27  16  63 S17       30.30F WCI  14
$$
MIZ043>046-050>051-056>058-064>065-071>073-077>080-220400-
SOUTHWEST LOWER MICHIGAN

CITY           SKY/WX    TMP DP  RH WIND       PRES   REMARKS
BATTLE CREEK   PTCLDY    23  11  60 S13       30.31F WCI  11
BENTON HARBOR  CLEAR     25  12  58 S9        30.29F WCI  15
BIG RAPIDS     MOCLDY    26  15  63 S8        30.22F WCI  17
COLDWATER      PTCLDY    21  13  71 S5        30.32F WCI  15
FREMONT        FAIR      25  11  54 S14       30.24F WCI  14
HOLLAND        CLEAR     25  13  60 S9        30.28F WCI  15
GRAND RAPIDS   PTCLDY    22  12  65 S13       30.28F WCI  10
IONIA          FAIR      21  13  70 S8        30.28F WCI  12
KALAMAZOO      MOCLDY    22  11  62 S9        30.31F WCI  12
LUDINGTON      MOCLDY    29  20  69 S7        30.19F WCI  22
MARSHALL       PTCLDY    20  11  68 S8        30.31F WCI  10
MOUNT PLEASANT MOCLDY    26  14  62 S7        30.26F WCI  18
MUSKEGON       PTCLDY    26  13  57 SE10      30.25F WCI  16
SOUTH HAVEN    CLEAR     26  14  58 S8        30.28F WCI  18
$$
MIZ016>042-220400-
NORTHERN LOWER MICHIGAN

CITY           SKY/WX    TMP DP  RH WIND       PRES   REMARKS
ALPENA         CLOUDY    25  15  66 S13       30.17F WCI  14
BEAVER ISLAND  MOCLDY    34  28  80 SW16G24   30.06F WCI  24
BELLAIRE       MOCLDY    28  19  69 S13       30.15F WCI  17
CADILLAC       MOCLDY    23  15  71 S15G21    30.15F WCI  10
CHARLEVOIX     CLOUDY    28  21  74 S12G23    30.13F WCI  18
FRANKFORT      MOCLDY    31  24  73 S12G17    30.14F WCI  22
GAYLORD        CLOUDY    22  15  75 SW20      30.11F WCI   7
GRAYLING       MOCLDY    24  15  68 S10       30.16F WCI  13
HARBOR SPRINGS CLOUDY    28  20  73 SW12G22   30.11F WCI  17
HOUGHTON LAKE  MOCLDY    24  14  65 S14       30.19F WCI  12
MANISTEE       CLOUDY    28  16  59 S9G16     30.18F WCI  20
OSCODA         MOCLDY    26  16  66 SW18G26   30.23F WCI  12
PELLSTON       MOCLDY    27  18  69 VRB7G17   30.10F WCI  19
ROGERS CITY    CLOUDY    25  18  74 S12G24    30.14F WCI  15
TRAVERSE CITY  MOCLDY    29  18  63 S8G17     30.14F WCI  21
$$
MIZ007>008-015-220400-
EASTERN UPPER MICHIGAN

CITY           SKY/WX    TMP DP  RH WIND       PRES   REMARKS
KINROSS        MOCLDY    27  25  93 S16G23    30.03F WCI  14
MACKINAC ISLAN CLOUDY    28  20  71 SW15G26   30.07F WCI  17
NEWBERRY       MOCLDY    31  25  79 S18G26    29.99F WCI  19
S. S. MARIE    CLOUDY    26  19  74 S9        30.07R WCI  17
MUNISING         N/A     29   8  41 S16G28    29.95F WCI  17
$$
MIZ004>006-011>014-085-220400-
CENTRAL UPPER MICHIGAN

CITY           SKY/WX    TMP DP  RH WIND       PRES   REMARKS
MANISTIQUE     PTCLDY    32  20  61 SW20G31   30.02F WCI  21
ESCANABA       MOCLDY    28  10  47 SW15G23   30.02F WCI  17
MENOMINEE      MOCLDY    28  12  50 SW18G29   30.05F WCI  16
SAWYER-GWINN   CLEAR     21  10  63 S22G28    29.92F WCI   5
$$
MIZ001>003-009>011-084-220400-
WESTERN UPPER MICHIGAN

CITY           SKY/WX    TMP DP  RH WIND       PRES   REMARKS
IRON MOUNTAIN  PTCLDY    23   8  52 S9        29.96F WCI  13
HOUGHTON       MOCLDY    27  12  53 SW13G21   29.78F WCI  16
COPPER HARBOR    N/A     28  13  53 W12G22    29.79F WCI  18
IRONWOOD       PTCLDY    27  14  59 S16G24    29.79F WCI  14
$$

ABBREVIATIONS USED IN REMARKS
   TC - TEMPERATURE IN CELSIUS
  WCI - WIND CHILL INDEX
   HX - HEAT INDEX
  VSB - VISIBILITY



USA.gov is the U.S. government's official web portal to all federal, state and local government web resources and services.